When you browse on this site, cookies collect data to enhance your experience and personalize the content and advertising you see.
Visit our Privacy Policy to learn more. By continuing to use the site, you agree to this use of cookies and data.
  • In Romania
  • List of Countries
  • For 7 days
  • Water Temperature
  • Satellite Maps
  • Weather Map
  • Weather Widgets
  • user-avatar
    Login

    Hourly Weather Pietrzykow

    Today, 22 February, Friday

    Time Temperature Precipitation Wind Pressure Humidity
    00:00 +5°C° 0.9 mm 5 mps 737 mmHg 92%
    01:00 +4°C° 0 mm 3 mps 737 mmHg 93%
    02:00 +4°C° 0.8 mm 4 mps 737 mmHg 94%
    03:00 +4°C° 0.8 mm 4 mps 737 mmHg 95%
    04:00 +5°C° 0.8 mm 5 mps 737 mmHg 96%
    05:00 +3°C° 0.4 mm 5 mps 738 mmHg 94%
    06:00 +2°C° 0.4 mm 6 mps 739 mmHg 93%
    07:00 +1°C° 0.4 mm 6 mps 740 mmHg 91%
    08:00 -1°C° 0.1 mm 6 mps 741 mmHg 88%
    09:00 -2°C° 0.1 mm 6 mps 742 mmHg 84%
    10:00 -3°C° 0.1 mm 6 mps 743 mmHg 80%
    11:00 -2°C° 0 mm 5 mps 744 mmHg 72%
    12:00 -1°C° 0 mm 5 mps 745 mmHg 64%
    13:00 -1°C° 0 mm 5 mps 746 mmHg 57%
    14:00 -1°C° 0 mm 5 mps 746 mmHg 55%
    15:00 -2°C° 0 mm 5 mps 747 mmHg 53%
    16:00 -2°C° 0 mm 5 mps 747 mmHg 52%
    17:00 -3°C° 0 mm 4 mps 748 mmHg 55%
    18:00 -4°C° 0 mm 3 mps 749 mmHg 58%
    19:00 -5°C° 0 mm 3 mps 749 mmHg 61%
    20:00 -5°C° 0 mm 3 mps 750 mmHg 61%
    21:00 -4°C° 0 mm 2 mps 751 mmHg 61%
    22:00 -4°C° 0 mm 2 mps 751 mmHg 61%
    23:00 -5°C° 0 mm 2 mps 751 mmHg 59%

    Tomorrow, 23 February, Saturday

    Time Temperature Precipitation Wind Pressure Humidity
    00:00 -5°C° 0 mm 2 mps 752 mmHg 57%
    01:00 -5°C° 0 mm 2 mps 752 mmHg 56%
    02:00 -5°C° 0 mm 2 mps 752 mmHg 55%
    03:00 -3°C° 0 mm 1 mps 752 mmHg 54%
    04:00 -3°C° 0 mm 1 mps 752 mmHg 53%
    05:00 -3°C° 0 mm 1 mps 752 mmHg 52%
    06:00 -3°C° 0 mm 1 mps 752 mmHg 51%
    07:00 -4°C° 0 mm 1 mps 752 mmHg 51%
    08:00 -3°C° 0 mm 1 mps 752 mmHg 44%
    09:00 -4°C° 0 mm 2 mps 752 mmHg 38%
    10:00 -3°C° 0 mm 2 mps 752 mmHg 32%
    11:00 -2°C° 0 mm 2 mps 752 mmHg 29%
    12:00 -1°C° 0 mm 2 mps 752 mmHg 27%
    13:00 +1°C° 0 mm 2 mps 752 mmHg 25%
    14:00 +1°C° 0 mm 2 mps 752 mmHg 26%
    15:00 +1°C° 0 mm 2 mps 751 mmHg 28%
    16:00 +1°C° 0 mm 2 mps 751 mmHg 30%
    17:00 -1°C° 0 mm 2 mps 751 mmHg 34%
    18:00 -2°C° 0 mm 2 mps 751 mmHg 37%
    19:00 -3°C° 0 mm 2 mps 750 mmHg 41%
    20:00 -1°C° 0 mm 1 mps 751 mmHg 40%
    21:00 -1°C° 0 mm 1 mps 751 mmHg 40%
    22:00 -1°C° 0 mm 1 mps 751 mmHg 39%
    23:00 -1°C° 0 mm 1 mps 751 mmHg 37%

    Day after tomorrow, 24 February, Sunday

    Time Temperature Precipitation Wind Pressure Humidity
    00:00 -1°C° 0 mm 1 mps 750 mmHg 36%
    01:00 -1°C° 0 mm 1 mps 750 mmHg 34%
    02:00 -1°C° 0 mm 1 mps 750 mmHg 34%
    03:00 0°C° 0 mm 1 mps 750 mmHg 33%
    04:00 0°C° 0 mm 1 mps 750 mmHg 32%
    05:00 0°C° 0 mm 1 mps 750 mmHg 32%
    06:00 0°C° 0 mm 1 mps 750 mmHg 31%
    07:00 0°C° 0 mm 1 mps 749 mmHg 30%
    08:00 +2°C° 0 mm 1 mps 750 mmHg 28%
    09:00 +2°C° 0 mm 0 mps 750 mmHg 26%
    10:00 +4°C° 0 mm 0 mps 750 mmHg 24%
    11:00 +6°C° 0 mm 1 mps 750 mmHg 25%
    12:00 +7°C° 0 mm 1 mps 750 mmHg 26%
    13:00 +8°C° 0 mm 1 mps 750 mmHg 26%
    14:00 +8°C° 0 mm 1 mps 750 mmHg 33%
    15:00 +7°C° 0 mm 1 mps 750 mmHg 39%
    16:00 +7°C° 0 mm 1 mps 749 mmHg 45%
    17:00 +5°C° 0 mm 1 mps 749 mmHg 47%
    18:00 +4°C° 0 mm 1 mps 749 mmHg 49%
    19:00 +3°C° 0 mm 1 mps 749 mmHg 51%
    20:00 +3°C° 0 mm 1 mps 750 mmHg 52%
    21:00 +3°C° 0 mm 1 mps 750 mmHg 52%
    22:00 +3°C° 0 mm 1 mps 750 mmHg 53%
    23:00 +3°C° 0 mm 1 mps 750 mmHg 53%

    25 February, Monday

    Time Temperature Precipitation Wind Pressure Humidity
    00:00 +3°C° 0 mm 1 mps 750 mmHg 53%
    01:00 +3°C° 0 mm 1 mps 750 mmHg 54%
    02:00 +2°C° 0 mm 2 mps 750 mmHg 54%
    03:00 +2°C° 0 mm 2 mps 750 mmHg 55%
    04:00 +2°C° 0 mm 2 mps 750 mmHg 55%
    05:00 +2°C° 0 mm 2 mps 750 mmHg 55%
    06:00 +2°C° 0 mm 2 mps 750 mmHg 55%
    07:00 +2°C° 0 mm 2 mps 750 mmHg 56%
    08:00 +3°C° 0 mm 2 mps 750 mmHg 53%
    09:00 +5°C° 0 mm 2 mps 750 mmHg 50%
    10:00 +5°C° 0 mm 3 mps 750 mmHg 48%
    11:00 +7°C° 0 mm 3 mps 750 mmHg 48%
    12:00 +8°C° 0 mm 3 mps 750 mmHg 47%
    13:00 +9°C° 0 mm 3 mps 750 mmHg 47%
    14:00 +9°C° 0 mm 3 mps 749 mmHg 50%
    15:00 +8°C° 0 mm 3 mps 749 mmHg 53%
    16:00 +8°C° 0 mm 2 mps 748 mmHg 56%
    17:00 +7°C° 0 mm 2 mps 748 mmHg 60%
    18:00 +5°C° 0 mm 2 mps 748 mmHg 64%
    19:00 +4°C° 0 mm 2 mps 748 mmHg 69%
    20:00 +4°C° 0 mm 2 mps 748 mmHg 69%
    21:00 +3°C° 0 mm 2 mps 748 mmHg 70%
    22:00 +3°C° 0 mm 2 mps 748 mmHg 71%
    23:00 +3°C° 0 mm 2 mps 748 mmHg 70%

    26 February, Tuesday

    Time Temperature Precipitation Wind Pressure Humidity
    00:00 +3°C° 0 mm 2 mps 747 mmHg 68%
    01:00 +3°C° 0 mm 2 mps 747 mmHg 67%
    02:00 +3°C° 0 mm 2 mps 747 mmHg 68%
    03:00 +3°C° 0 mm 2 mps 746 mmHg 68%
    04:00 +2°C° 0 mm 3 mps 746 mmHg 69%
    05:00 +2°C° 0 mm 3 mps 746 mmHg 71%
    06:00 +2°C° 0 mm 3 mps 745 mmHg 73%
    07:00 +2°C° 0 mm 3 mps 745 mmHg 75%
    08:00 +4°C° 0 mm 4 mps 745 mmHg 69%
    09:00 +5°C° 0 mm 5 mps 745 mmHg 63%
    10:00 +7°C° 0 mm 5 mps 745 mmHg 57%
    11:00 +7°C° 0 mm 5 mps 744 mmHg 56%
    12:00 +8°C° 0 mm 5 mps 744 mmHg 55%
    13:00 +8°C° 0 mm 5 mps 744 mmHg 54%
    14:00 +8°C° 0 mm 5 mps 744 mmHg 59%
    15:00 +7°C° 0 mm 5 mps 744 mmHg 64%
    16:00 +6°C° 0 mm 5 mps 743 mmHg 69%
    17:00 +5°C° 0 mm 4 mps 743 mmHg 74%
    18:00 +4°C° 0 mm 3 mps 744 mmHg 79%
    19:00 +3°C° 0 mm 3 mps 744 mmHg 84%
    20:00 +3°C° 0 mm 3 mps 744 mmHg 86%
    21:00 +3°C° 0 mm 2 mps 744 mmHg 88%
    22:00 +3°C° 0 mm 2 mps 744 mmHg 89%
    23:00 +3°C° 0 mm 2 mps 744 mmHg 89%

    27 February, Wednesday

    Time Temperature Precipitation Wind Pressure Humidity
    00:00 +2°C° 0 mm 2 mps 744 mmHg 89%
    01:00 +2°C° 0 mm 2 mps 744 mmHg 90%
    02:00 +2°C° 0 mm 2 mps 744 mmHg 89%
    03:00 +2°C° 0 mm 2 mps 744 mmHg 87%
    04:00 +2°C° 0 mm 1 mps 744 mmHg 86%
    05:00 +2°C° 0 mm 1 mps 744 mmHg 84%
    06:00 +2°C° 0 mm 1 mps 744 mmHg 81%
    07:00 +2°C° 0 mm 1 mps 744 mmHg 78%
    08:00 +4°C° 0 mm 1 mps 744 mmHg 68%
    09:00 +6°C° 0 mm 1 mps 744 mmHg 59%
    10:00 +8°C° 0 mm 1 mps 744 mmHg 49%
    11:00 +9°C° 0 mm 1 mps 744 mmHg 44%
    12:00 +11°C° 0 mm 1 mps 743 mmHg 38%
    13:00 +12°C° 0 mm 1 mps 743 mmHg 32%
    14:00 +12°C° 0 mm 1 mps 742 mmHg 36%
    15:00 +12°C° 0 mm 2 mps 741 mmHg 39%
    16:00 +12°C° 0 mm 2 mps 741 mmHg 42%
    17:00 +9°C° 0 mm 2 mps 740 mmHg 48%
    18:00 +8°C° 0 mm 2 mps 740 mmHg 54%
    19:00 +5°C° 0 mm 3 mps 739 mmHg 60%
    20:00 +5°C° 0 mm 3 mps 739 mmHg 60%
    21:00 +5°C° 0 mm 3 mps 738 mmHg 59%
    22:00 +5°C° 0 mm 3 mps 737 mmHg 59%
    23:00 +5°C° 0 mm 4 mps 737 mmHg 61%
    Show more